Edwards AFB, CA

11:51 PM PDT on April 21, 2018 (GMT -0700)
Edwards Air Force Base

Weather History for KEDW - May, 2013

Change the Weather History Date:

Friday, May 10, 2013

  Actual Average Record
Temperature  
Mean Temperature 71 °F -  
Max Temperature 89 °F 79 °F 96 °F (2001)
Min Temperature 53 °F 50 °F 35 °F (2003)
Cooling Degree Days 6    
Growing Degree Days 21 (Base 50)    
Moisture  
Dew Point 42 °F    
Average Humidity 38    
Maximum Humidity 81    
Minimum Humidity 11    
Precipitation  
Precipitation 0.00 in - - ()
Sea Level Pressure  
Sea Level Pressure 30.03 in    
Wind  
Wind Speed 8 mph (WNW)    
Max Wind Speed 18 mph    
Max Gust Speed 25 mph    
Visibility 10 miles    
Events      
Averages and records for this station are not official NWS values.
T = Trace of Precipitation, MM = Missing Value Source: NWS Daily Summary

Daily Weather History Graph

Daily Weather History Graph

Search for Another Location

Airport or City:

Astronomy

May. 10, 2013 Rise Set
Actual Time 5:51 AM PDT 7:44 PM PDT
Civil Twilight 5:24 AM PDT 8:12 PM PDT
Nautical Twilight 4:50 AM PDT 8:45 PM PDT
Astronomical Twilight 4:15 AM PDT 9:21 PM PDT
Moon 6:19 AM PDT (5/10) 8:36 PM PDT (5/10)
Length of Visible Light 14h 47m
Length of Day
13h 52m
New Moon, 1% of the Moon is Illuminated
May 10
New Moon
May 17
First Quarter
May 24
Full
May 31
Last Quarter
Jun 8
New

Hourly Weather History & Observations

Time (PDT) Temp. Dew Point Humidity Pressure Visibility Wind Dir Wind Speed Gust Speed Precip Events Conditions
12:58 AM 58.3 °F 47.5 °F 67% 30.04 in 10.0 mi SW 6.9 mph - N/A   Clear
1:58 AM 56.8 °F 47.7 °F 71% 30.04 in 10.0 mi SSW 5.8 mph - N/A   Clear
2:58 AM 55.9 °F 48.2 °F 75% 30.04 in 10.0 mi SSW 6.9 mph - N/A   Clear
3:58 AM 55.2 °F 48.2 °F 77% 30.04 in 10.0 mi South 8.1 mph - N/A   Clear
4:58 AM 53.2 °F 47.7 °F 81% 30.04 in 10.0 mi SSW 5.8 mph - N/A   Clear
5:58 AM 54.9 °F 47.8 °F 77% 30.09 in 50.0 mi SSW 5.8 mph - N/A   Partly Cloudy
6:58 AM 54.9 °F 47.8 °F 77% 30.08 in 50.0 mi WNW 1.2 mph - N/A   Partly Cloudy
7:58 AM 61.9 °F 48.4 °F 61% 30.08 in 50.0 mi SSW 4.6 mph - N/A   Clear
8:58 AM 66.6 °F 48.0 °F 51% 30.09 in 50.0 mi Variable 2.3 mph - N/A   Scattered Clouds
9:58 AM 70.7 °F 46.0 °F 41% 30.09 in 50.0 mi Variable 2.3 mph - N/A   Scattered Clouds
10:58 AM 74.3 °F 43.7 °F 33% 30.09 in 50.0 mi North 3.5 mph - N/A   Partly Cloudy
11:58 AM 77.2 °F 42.1 °F 29% 30.07 in 60.0 mi NW 4.6 mph - N/A   Partly Cloudy
12:31 PM 78.8 °F 42.8 °F 28% 30.11 in 60.0 mi Variable 2.3 mph - N/A   Partly Cloudy
12:58 PM 80.8 °F 42.1 °F 25% 30.05 in 70.0 mi Variable 3.5 mph - N/A   Partly Cloudy
1:58 PM 83.5 °F 41.0 °F 22% 30.03 in 90.0 mi Variable 4.6 mph - N/A   Partly Cloudy
2:58 PM 86.5 °F 40.3 °F 20% 30.00 in 70.0 mi Variable 4.6 mph - N/A   Partly Cloudy
3:38 PM 87.8 °F 35.6 °F 16% 30.02 in 80.0 mi NE 16.1 mph 25.3 mph N/A   Partly Cloudy
3:39 PM 87.8 °F 35.6 °F 16% 30.02 in 80.0 mi ENE 16.1 mph 25.3 mph N/A   Partly Cloudy
3:52 PM 89.6 °F 28.4 °F 11% 30.03 in 80.0 mi NNE 11.5 mph 23.0 mph N/A   Partly Cloudy
3:58 PM 89.2 °F 30.0 °F 12% 29.97 in 80.0 mi ENE 12.7 mph 19.6 mph N/A   Partly Cloudy
4:46 PM 89.6 °F 30.2 °F 12% 30.02 in 10.0 mi North 12.7 mph 20.7 mph N/A   Clear
4:50 PM 89.6 °F 32.0 °F 13% 30.02 in 10.0 mi NNE 16.1 mph 21.9 mph N/A   Clear
4:51 PM 89.6 °F 32.0 °F 13% 30.02 in 80.0 mi NNE 16.1 mph 21.9 mph N/A   Partly Cloudy
4:58 PM 88.9 °F 30.6 °F 12% 29.97 in 80.0 mi ENE 10.4 mph 23.0 mph N/A   Partly Cloudy
5:58 PM 88.5 °F 28.6 °F 12% 29.97 in 70.0 mi NW 13.8 mph - N/A   Partly Cloudy
6:58 PM 83.7 °F 46.2 °F 27% 29.97 in 60.0 mi WNW 18.4 mph - N/A   Partly Cloudy
7:58 PM 79.5 °F 45.9 °F 30% 29.98 in 50.0 mi NW 13.8 mph 21.9 mph N/A   Partly Cloudy
8:58 PM 76.5 °F 48.0 °F 37% 30.00 in 30.0 mi NW 16.1 mph - N/A   Partly Cloudy
9:58 PM 74.7 °F 47.1 °F 38% 30.03 in 30.0 mi WNW 11.5 mph - N/A   Clear
10:58 PM 73.0 °F 46.6 °F 39% 30.04 in 10.0 mi SW 5.8 mph - N/A   Clear
11:58 PM 70.0 °F 46.2 °F 43% 30.04 in 10.0 mi SW 9.2 mph - N/A   Clear